Regional Weather Roundup
Issued by NWS

Home | Current Version | Previous Version | Graphics & Text | Print | Product List | Glossary On
Versions: 1 2 3 4 5 6 7 8 9 10 11 12 13 14 15 16 17 18 19 20 21 22 23 24 25 26 27 28 29 30 31 32 33 34 35 36 37 38 39 40 41 42 43 44 45 46 47 48 49 50
000
ASUS43 KMKX 300900
RWRWI

WISCONSIN REGIONAL WEATHER ROUNDUP
NATIONAL WEATHER SERVICE MILWAUKEE/SULLIVAN WI
400 AM CDT WED JUL 30 2014

NOTE: "FAIR" INDICATES FEW OR NO CLOUDS BELOW 12,000 FEET WITH NO
SIGNIFICANT WEATHER AND/OR OBSTRUCTIONS TO VISIBILITY.

WIZ001-002-006>008-014>016-023>028-301000-
NORTHWEST WISCONSIN

CITY           SKY/WX    TMP DP  RH WIND       PRES   REMARKS
SUPERIOR ARPT  FOG       48  48 100 CALM      30.06S VSB 1/4
ASHLAND        FOG       49  49 100 SW5       30.07S VSB 3/4
HAYWARD        FOG       50  50 100 CALM      30.07R VSB 1/4
SIREN          FOG       53  53  98 CALM      30.06S VSB 1/2
RICE LAKE      FOG       53  52  95 CALM      30.08R VSB<1/4
LADYSMITH      FOG       55  54  96 N3        30.08R VSB 1/2
EAU CLAIRE     CLEAR     54  54 100 CALM      30.04S FOG
MENOMONIE      SUNNY     57  55  94 CALM      30.06R
NEW RICHMOND   CLEAR     55  55  99 CALM      30.06S
OSCEOLA        CLEAR     55  55 100 CALM      30.09R
$$

WIZ003>005-009-010-017-018-301000-
NORTH CENTRAL WISCONSIN

CITY           SKY/WX    TMP DP  RH WIND       PRES   REMARKS
WOODRUFF       CLEAR     49  47  93 CALM      30.05S
RHINELANDER    CLEAR     50  49  96 CALM      30.05S
EAGLE RIVER    FOG       51  51 100 CALM      30.04S VSB 1/2
LAND O LAKES   CLOUDY    52  52 100 CALM      30.05S FOG
PHILLIPS       CLOUDY    54  54  99 CALM      30.05S
TOMAHAWK       FOG       44  43  97 CALM      30.06R VSB 1/4
MEDFORD        FOG       53  52  99 CALM      30.05R VSB 1/4
MERRILL        FOG       52  52 100 CALM      30.04S VSB 1/4
$$

WIZ029-030-035-036-043>047-301000-
CENTRAL WISCONSIN

CITY           SKY/WX    TMP DP  RH WIND       PRES   REMARKS
WAUSAU         CLEAR     54  53  97 NW3       30.03R
MOSINEE        CLEAR     54  54 100 N6        30.04S
MARSHFIELD     CLEAR     54  52  93 NW6       30.04R FOG
STEVENS POINT  CLEAR     53  51  94 CALM      30.03S
WAUPACA        MOCLDY    59  56  92 NW5       30.02R
WAUTOMA        NOT AVBL
WISC RAPIDS    CLEAR     55  53  93 CALM      30.04S
CAMP DOUGLAS   FOG       55  55 100 W3        30.04R VSB 3/4
$$

WIZ011>013-019>022-031-037>040-048>050-301000-
NORTHEAST WISCONSIN

CITY           SKY/WX    TMP DP  RH WIND       PRES   REMARKS
ANTIGO         CLEAR     48  48  99 N3        30.04R
STURGEON BAY   CLEAR     57  54  88 N6        30.00S
GREEN BAY      PTCLDY    57  57 100 N3        30.00R FOG
MANITOWOC      PTCLDY    57  57 100 MISG      29.99S
APPLETON       CLOUDY    57  55  94 N3        30.00S
CLINTONVILLE   CLEAR     55  55 100 CALM      30.01R
OSHKOSH        MOCLDY    57  56  96 W7        30.00R
$$

WIZ032>034-041-042-053>061-301000-
SOUTHWEST WISCONSIN

CITY           SKY/WX    TMP DP  RH WIND       PRES   REMARKS
LA CROSSE      CLEAR     60  57  89 CALM      30.03S FOG
SPARTA         CLOUDY    54  53  98 CALM      30.05S FOG
VIROQUA        FAIR      56  56 100 CALM      30.05S
BOSCOBEL       FOG       58  56  93 CALM      30.04S VSB 1/4
PRAIRIE DU CHI CLEAR     61  56  83 NW3       30.04R
PLATTEVILLE    FAIR      58  56  94 W5        30.04S
$$

WIZ056-057-062-063-064-067-068-301000-
SOUTH CENTRAL WISCONSIN

CITY           SKY/WX    TMP DP  RH WIND       PRES   REMARKS
BARABOO/DELLS  CLEAR     56  54  92 CALM      30.02F
LONE ROCK      NOT AVBL
WATERTOWN      PTCLDY    57  56  99 CALM      30.01R
MADISON        CLOUDY    61  57  87 VRB5      30.02S
MIDDLETON      CLOUDY    60  58  94 CALM      30.02S
MONROE         PTCLDY    59  55  88 NW7       30.02F
JANESVILLE     MOCLDY    57  54  88 CALM      30.01S
$$

WIZ051-052-058>065-066-070>072-301000-
SOUTHEAST WISCONSIN

CITY           SKY/WX    TMP DP  RH WIND       PRES   REMARKS
MILWAUKEE      MOCLDY    60  55  83 NW5       30.00R
WAUKESHA       CLOUDY    57  55  94 W7        30.01S
MILWAUKEE/TIMM MOCLDY    57  54  88 W3        30.00S
RACINE         PTCLDY    58  55  90 W7        30.00S
BURLINGTON     CLEAR     53  53  99 SW3       30.00S
KENOSHA        CLEAR     56  55  97 W3        30.00S
FOND DU LAC    CLEAR     54  53  97 CALM      30.01R
SHEBOYGAN      CLEAR     57  55  93 NW6       29.99R
WEST BEND      CLEAR     55  52  88 W3        30.00R
JUNEAU         CLEAR     54  53  97 CALM      30.02S FOG
$$

LSZ147-162-301000-
LAKE SUPERIOR

STATION/POSITION TIME  TEMP    WIND        PRES    WAVE
                       AIR SEA DIR/SP/G            HT/PER
                 (UTC) (F)     (DEG/KT/KT) (MB)    (FT/S)
W MID LAKE BUOY  0750   48 43  230/  4/  4 1017.4F   0
PORT WING        0800   56     170/  2/  4 1017.9S
SAXON HARBOR     0800          180/  2/  4 1017.6S
$$

LMZ867-665-643>646-301000-
LAKE MICHIGAN

STATION/POSITION TIME  TEMP    WIND        PRES    WAVE
                       AIR SEA DIR/SP/G            HT/PER
                 (UTC) (F)     (DEG/KT/KT) (MB)    (FT/S)
N MID LAKE BUOY  0750   56 53  330/  6/  6 1014.7F   0
NORTHPORT PIER   0800   56      CALM  /  1 1015.6S
SISTER BAY       0710   57        CALM       N/A
ALGOMA LAKESHORE 0721          350/  5/  6   N/A
KEWAUNEE LAKESHO 0800   59     360/  3/  5 1016.1S
SHEBOYGAN LAKESH 0800   61     300/  9/ 11 1015.2S
PORT WASHINGTON  0800   60     290/  6/  9 1015.9
ATWATER BUOY     0800   61     280/  6     1016.2S
MILWAUKEE LAKESH 0800   61     280/ 10/ 13   N/A
S MID LAKE BUOY  0750   61 61  200/  2/  4 1015.6F   1/ 3
KENOSHA   LAKESH 0800   61     270/ 10/ 14 1015.6S
$$

TC  - TEMPERATURE IN CELSIUS
VSB - VISIBILITY IN STATUTE MILES
WCI - WIND CHILL INDEX
HX  - HEAT INDEX




USA.gov is the U.S. government's official web portal to all federal, state and local government web resources and services.